TimeCST,TemperatureF,Dew PointF,Humidity,Sea Level PressureIn,VisibilityMPH,Wind Direction,Wind SpeedMPH,Gust SpeedMPH,PrecipitationIn,Events,Conditions,WindDirDegrees,DateUTC
12:15 AM,42.3,30.2,62,29.59,10.0,NW,8.1,-,N/A,,Clear,320,2013-02-18 06:15:00
12:55 AM,40.1,32.0,73,29.61,10.0,NNW,6.9,-,N/A,,Clear,340,2013-02-18 06:55:00
1:15 AM,39.6,32.5,76,29.61,10.0,NNW,9.2,-,N/A,,Clear,340,2013-02-18 07:15:00
1:35 AM,39.4,32.7,77,29.61,10.0,NNW,6.9,-,N/A,,Clear,340,2013-02-18 07:35:00
1:55 AM,38.8,32.5,78,29.60,10.0,NNW,13.8,-,N/A,,Clear,330,2013-02-18 07:55:00
2:15 AM,38.3,32.4,79,29.59,10.0,NNW,10.4,16.1,N/A,,Clear,340,2013-02-18 08:15:00
2:35 AM,37.8,32.2,80,29.59,10.0,NNW,13.8,18.4,N/A,,Clear,340,2013-02-18 08:35:00
2:55 AM,37.8,32.2,80,29.59,10.0,NNW,16.1,19.6,N/A,,Clear,340,2013-02-18 08:55:00
3:15 AM,38.1,32.4,80,29.59,10.0,NNW,17.3,23.0,N/A,,Clear,330,2013-02-18 09:15:00
3:35 AM,38.1,32.0,79,29.58,10.0,NNW,18.4,24.2,N/A,,Clear,330,2013-02-18 09:35:00
3:55 AM,37.8,31.6,79,29.59,10.0,NNW,17.3,27.6,N/A,,Clear,340,2013-02-18 09:55:00
4:15 AM,37.0,31.5,80,29.59,10.0,NNW,15.0,23.0,N/A,,Clear,340,2013-02-18 10:15:00
4:35 AM,36.9,31.1,80,29.60,10.0,NNW,15.0,24.2,N/A,,Clear,330,2013-02-18 10:35:00
4:55 AM,36.9,31.5,81,29.60,10.0,NNW,18.4,26.5,N/A,,Scattered Clouds,330,2013-02-18 10:55:00
5:15 AM,37.2,31.5,80,29.61,10.0,NNW,19.6,25.3,N/A,,Mostly Cloudy,330,2013-02-18 11:15:00
5:35 AM,37.2,31.5,80,29.63,10.0,NNW,20.7,25.3,N/A,,Scattered Clouds,330,2013-02-18 11:35:00
5:55 AM,36.9,31.3,80,29.63,10.0,NNW,19.6,29.9,N/A,,Scattered Clouds,330,2013-02-18 11:55:00
6:15 AM,36.9,31.1,80,29.64,10.0,NNW,19.6,25.3,N/A,,Mostly Cloudy,330,2013-02-18 12:15:00
6:35 AM,36.7,31.1,80,29.65,10.0,NNW,20.7,29.9,N/A,,Mostly Cloudy,330,2013-02-18 12:35:00
6:55 AM,36.5,30.7,80,29.66,10.0,NNW,20.7,24.2,N/A,,Overcast,330,2013-02-18 12:55:00
7:15 AM,36.3,31.1,81,29.66,10.0,NW,19.6,26.5,N/A,,Overcast,320,2013-02-18 13:15:00
7:35 AM,36.0,30.0,79,29.65,10.0,NNW,23.0,32.2,N/A,,Overcast,330,2013-02-18 13:35:00
7:55 AM,36.0,29.3,77,29.67,10.0,NNW,19.6,27.6,N/A,,Overcast,330,2013-02-18 13:55:00
8:15 AM,34.9,29.3,80,29.68,10.0,NNW,23.0,33.4,N/A,,Overcast,330,2013-02-18 14:15:00
8:35 AM,33.8,28.8,82,29.70,10.0,NNW,29.9,38.0,N/A,,Overcast,330,2013-02-18 14:35:00
8:55 AM,32.9,26.8,78,29.72,10.0,NNW,25.3,33.4,N/A,,Overcast,340,2013-02-18 14:55:00
9:15 AM,32.0,25.0,75,29.74,10.0,NNW,23.0,35.7,N/A,,Overcast,340,2013-02-18 15:15:00
9:35 AM,31.8,24.8,75,29.76,10.0,NNW,28.8,36.8,N/A,,Overcast,340,2013-02-18 15:35:00
9:55 AM,30.7,23.4,74,29.76,10.0,NNW,27.6,40.3,N/A,,Overcast,340,2013-02-18 15:55:00
10:35 AM,29.5,20.7,70,29.78,10.0,NNW,29.9,38.0,N/A,,Overcast,340,2013-02-18 16:35:00
10:55 AM,28.4,19.9,71,29.80,10.0,NNW,27.6,38.0,N/A,,Overcast,340,2013-02-18 16:55:00
11:15 AM,27.9,20.5,74,29.81,10.0,NNW,28.8,34.5,N/A,,Overcast,340,2013-02-18 17:15:00
11:35 AM,27.1,19.0,72,29.83,10.0,NNW,27.6,38.0,N/A,,Overcast,330,2013-02-18 17:35:00
11:55 AM,26.6,18.3,71,29.84,10.0,NNW,25.3,36.8,N/A,,Overcast,340,2013-02-18 17:55:00
12:15 PM,27.1,16.9,65,29.84,10.0,NNW,25.3,34.5,N/A,,Overcast,330,2013-02-18 18:15:00
12:35 PM,26.6,17.2,68,29.85,10.0,NNW,27.6,35.7,N/A,,Overcast,340,2013-02-18 18:35:00
12:55 PM,26.1,17.6,70,29.86,7.0,NNW,23.0,33.4,N/A,Snow,Light Snow,330,2013-02-18 18:55:00
1:15 PM,27.0,15.1,61,29.86,10.0,NNW,28.8,39.1,N/A,,Overcast,340,2013-02-18 19:15:00
1:35 PM,26.4,13.5,58,29.87,10.0,NNW,27.6,36.8,N/A,,Overcast,330,2013-02-18 19:35:00
1:55 PM,26.8,13.8,58,29.88,10.0,NNW,29.9,40.3,N/A,,Overcast,330,2013-02-18 19:55:00
2:15 PM,26.6,14.0,59,29.88,10.0,NW,27.6,35.7,N/A,,Overcast,320,2013-02-18 20:15:00
2:35 PM,27.0,14.5,60,29.89,10.0,NNW,21.9,35.7,N/A,,Overcast,330,2013-02-18 20:35:00
2:55 PM,27.3,14.5,59,29.89,10.0,NNW,23.0,35.7,N/A,,Overcast,340,2013-02-18 20:55:00
3:15 PM,28.2,15.6,59,29.89,10.0,NNW,26.5,31.1,N/A,,Mostly Cloudy,330,2013-02-18 21:15:00
3:35 PM,27.5,16.5,63,29.90,10.0,NNW,25.3,31.1,N/A,,Mostly Cloudy,330,2013-02-18 21:35:00
3:55 PM,27.1,15.8,62,29.91,10.0,NNW,25.3,35.7,N/A,,Overcast,330,2013-02-18 21:55:00
4:15 PM,26.6,16.0,64,29.92,10.0,NNW,21.9,28.8,N/A,,Overcast,340,2013-02-18 22:15:00
4:35 PM,26.2,15.1,63,29.92,10.0,NNW,20.7,32.2,N/A,,Mostly Cloudy,330,2013-02-18 22:35:00
4:55 PM,26.2,15.6,64,29.92,10.0,NNW,21.9,26.5,N/A,,Scattered Clouds,330,2013-02-18 22:55:00
5:15 PM,26.1,15.3,64,29.93,10.0,NNW,24.2,33.4,N/A,,Scattered Clouds,330,2013-02-18 23:15:00
5:35 PM,24.4,13.8,64,29.95,10.0,NNW,25.3,34.5,N/A,,Clear,330,2013-02-18 23:35:00
5:55 PM,23.0,13.6,67,29.96,10.0,NNW,19.6,28.8,N/A,,Clear,340,2013-02-18 23:55:00
6:15 PM,22.1,14.0,71,29.97,10.0,NNW,19.6,25.3,N/A,,Clear,330,2013-02-19 00:15:00
6:35 PM,21.9,14.0,72,29.98,10.0,NNW,23.0,29.9,N/A,,Clear,330,2013-02-19 00:35:00
6:55 PM,21.6,13.1,70,29.98,10.0,NNW,18.4,24.2,N/A,,Scattered Clouds,330,2013-02-19 00:55:00
7:15 PM,20.8,12.9,71,29.98,10.0,NNW,13.8,20.7,N/A,,Clear,330,2013-02-19 01:15:00
7:35 PM,20.8,13.1,72,29.98,10.0,NNW,18.4,-,N/A,,Mostly Cloudy,340,2013-02-19 01:35:00
7:55 PM,20.7,13.5,74,29.98,10.0,NNW,15.0,21.9,N/A,,Overcast,330,2013-02-19 01:55:00
8:15 PM,20.3,13.8,76,29.98,10.0,NNW,12.7,-,N/A,,Scattered Clouds,340,2013-02-19 02:15:00
8:35 PM,20.3,13.8,76,30.00,10.0,NNW,19.6,25.3,N/A,,Clear,340,2013-02-19 02:35:00
8:55 PM,21.0,14.4,75,30.00,10.0,NNW,13.8,-,N/A,,Scattered Clouds,340,2013-02-19 02:55:00
9:15 PM,21.0,14.0,74,30.01,10.0,NNW,21.9,29.9,N/A,,Mostly Cloudy,330,2013-02-19 03:15:00
9:35 PM,20.5,13.5,74,30.02,10.0,NNW,20.7,27.6,N/A,,Overcast,340,2013-02-19 03:35:00
9:55 PM,19.4,11.8,72,30.03,10.0,NNW,26.5,35.7,N/A,,Mostly Cloudy,330,2013-02-19 03:55:00
10:15 PM,18.0,11.7,76,30.04,10.0,NNW,15.0,26.5,N/A,,Scattered Clouds,330,2013-02-19 04:15:00
10:35 PM,17.1,9.3,72,30.05,10.0,NNW,26.5,33.4,N/A,,Clear,330,2013-02-19 04:35:00
10:55 PM,15.8,10.4,79,30.06,5.0,NNW,15.0,21.9,N/A,Snow,Light Snow,340,2013-02-19 04:55:00
11:15 PM,14.7,8.6,77,30.07,7.0,NNW,13.8,24.2,N/A,Snow,Light Snow,340,2013-02-19 05:15:00
11:35 PM,13.6,7.9,78,30.08,10.0,North,13.8,-,N/A,,Mostly Cloudy,350,2013-02-19 05:35:00
11:55 PM,13.5,7.2,76,30.08,10.0,NNW,17.3,25.3,N/A,,Scattered Clouds,330,2013-02-19 05:55:00